Location: Unspecified
(0.0000°N, 0.0000°E)
Time: 20:31:20
(UTC+00:00)

COSMOS 2491 DEB - Visible Passes

Search period start: 10 April 2026 00:00
Search period end: 20 April 2026 00:00
Orbit: 1376 x 1486 km, 82.4° (Epoch: 28 January)

Date Brightness Start Highest point End Pass type
(mag) Time Alt. Az. Time Alt. Az. Time Alt. Az.
13 Apr ? 20:46:27 12° N 20:46:27 12° N 20:46:49 10° N visible
14 Apr ? 21:34:05 14° NNW 21:34:05 14° NNW 21:35:10 10° NNW visible
15 Apr ? 20:27:02 26° NNE 20:27:02 26° NNE 20:30:03 10° N visible
16 Apr ? 19:19:35 17° ENE 19:19:35 17° ENE 19:22:04 10° NE visible
16 Apr ? 21:13:56 31° NW 21:13:56 31° NW 21:18:35 10° NNW visible
17 Apr ? 19:57:02 10° S 20:05:10 69° E 20:13:18 10° NNE visible
17 Apr ? 21:59:15 11° W 22:00:13 12° W 22:02:45 10° WNW visible
18 Apr ? 18:53:30 10° SE 18:59:17 21° E 19:05:03 10° NE visible
18 Apr ? 20:46:42 10° SSW 20:54:19 43° W 21:01:58 10° NNW visible
19 Apr ? 19:40:21 10° S 19:48:26 64° E 19:56:31 10° NNE visible
19 Apr ? 21:40:09 10° WSW 21:43:29 13° W 21:46:51 10° WNW visible
